When you browse on this site, cookies collect data to enhance your experience and personalize the content and advertising you see.
Visit our Privacy Policy to learn more. By continuing to use the site, you agree to this use of cookies and data.
  • In Lithuania
  • List of Countries
  • For 7 days
  • Water Temperature
  • Satellite Maps
  • Weather Map
  • Weather Widgets
  • user-avatar
    Login

    Hourly Weather Lezhe

    Today, 22 February, Friday

    Time Temperature Precipitation Wind Pressure Humidity
    00:00 +7°C° 0 mm 2 mps 743 mmHg 61%
    01:00 +7°C° 0 mm 2 mps 742 mmHg 61%
    02:00 +7°C° 0 mm 2 mps 742 mmHg 62%
    03:00 +6°C° 0 mm 2 mps 742 mmHg 63%
    04:00 +6°C° 0 mm 2 mps 741 mmHg 64%
    05:00 +6°C° 0 mm 2 mps 741 mmHg 64%
    06:00 +6°C° 0 mm 2 mps 741 mmHg 63%
    07:00 +6°C° 0 mm 2 mps 740 mmHg 62%
    08:00 +8°C° 0 mm 2 mps 740 mmHg 58%
    09:00 +10°C° 0 mm 1 mps 740 mmHg 54%
    10:00 +10°C° 0 mm 0 mps 739 mmHg 50%
    11:00 +11°C° 0 mm 0 mps 739 mmHg 48%
    12:00 +12°C° 0 mm 1 mps 738 mmHg 47%
    13:00 +13°C° 0 mm 1 mps 738 mmHg 46%
    14:00 +13°C° 0 mm 1 mps 738 mmHg 49%
    15:00 +12°C° 0 mm 1 mps 737 mmHg 52%
    16:00 +12°C° 0 mm 2 mps 737 mmHg 55%
    17:00 +10°C° 0 mm 2 mps 737 mmHg 60%
    18:00 +10°C° 0 mm 1 mps 737 mmHg 65%
    19:00 +9°C° 0 mm 1 mps 736 mmHg 71%
    20:00 +9°C° 0 mm 1 mps 737 mmHg 71%
    21:00 +7°C° 0 mm 2 mps 737 mmHg 72%
    22:00 +7°C° 0 mm 2 mps 737 mmHg 72%
    23:00 +7°C° 0 mm 3 mps 737 mmHg 69%

    Tomorrow, 23 February, Saturday

    Time Temperature Precipitation Wind Pressure Humidity
    00:00 +6°C° 0 mm 5 mps 737 mmHg 67%
    01:00 +4°C° 0 mm 6 mps 738 mmHg 64%
    02:00 +1°C° 0 mm 8 mps 738 mmHg 56%
    03:00 0°C° 0 mm 10 mps 737 mmHg 48%
    04:00 -3°C° 0 mm 12 mps 737 mmHg 39%
    05:00 -5°C° 0.1 mm 13 mps 737 mmHg 43%
    06:00 -5°C° 0.1 mm 13 mps 738 mmHg 47%
    07:00 -6°C° 0.1 mm 13 mps 738 mmHg 50%
    08:00 -5°C° 0 mm 14 mps 738 mmHg 50%
    09:00 -5°C° 0 mm 14 mps 738 mmHg 50%
    10:00 -4°C° 0 mm 15 mps 738 mmHg 50%
    11:00 -3°C° 0 mm 15 mps 739 mmHg 48%
    12:00 -3°C° 0 mm 15 mps 739 mmHg 45%
    13:00 -1°C° 0 mm 15 mps 740 mmHg 43%
    14:00 -1°C° 0 mm 14 mps 740 mmHg 43%
    15:00 -1°C° 0 mm 13 mps 741 mmHg 42%
    16:00 -2°C° 0 mm 13 mps 741 mmHg 41%
    17:00 -2°C° 0 mm 12 mps 742 mmHg 42%
    18:00 -3°C° 0 mm 12 mps 743 mmHg 42%
    19:00 -3°C° 0 mm 11 mps 743 mmHg 43%
    20:00 -4°C° 0 mm 10 mps 744 mmHg 43%
    21:00 -4°C° 0 mm 9 mps 744 mmHg 44%
    22:00 -5°C° 0 mm 9 mps 745 mmHg 45%
    23:00 -5°C° 0 mm 8 mps 745 mmHg 45%

    Day after tomorrow, 24 February, Sunday

    Time Temperature Precipitation Wind Pressure Humidity
    00:00 -5°C° 0 mm 8 mps 745 mmHg 45%
    01:00 -5°C° 0 mm 8 mps 745 mmHg 45%
    02:00 -5°C° 0 mm 8 mps 745 mmHg 45%
    03:00 -5°C° 0 mm 8 mps 745 mmHg 45%
    04:00 -5°C° 0 mm 8 mps 745 mmHg 45%
    05:00 -4°C° 0 mm 7 mps 745 mmHg 45%
    06:00 -4°C° 0 mm 7 mps 746 mmHg 45%
    07:00 -4°C° 0 mm 7 mps 746 mmHg 45%
    08:00 -2°C° 0 mm 7 mps 746 mmHg 41%
    09:00 -1°C° 0 mm 7 mps 746 mmHg 38%
    10:00 +2°C° 0 mm 7 mps 746 mmHg 35%
    11:00 +3°C° 0 mm 7 mps 746 mmHg 35%
    12:00 +4°C° 0 mm 7 mps 746 mmHg 34%
    13:00 +5°C° 0 mm 6 mps 746 mmHg 34%
    14:00 +4°C° 0 mm 6 mps 746 mmHg 36%
    15:00 +4°C° 0 mm 6 mps 746 mmHg 38%
    16:00 +3°C° 0 mm 7 mps 745 mmHg 40%
    17:00 +2°C° 0 mm 7 mps 746 mmHg 42%
    18:00 +1°C° 0 mm 6 mps 746 mmHg 45%
    19:00 -1°C° 0 mm 6 mps 747 mmHg 48%
    20:00 -1°C° 0 mm 6 mps 747 mmHg 47%
    21:00 -2°C° 0 mm 6 mps 748 mmHg 47%
    22:00 -2°C° 0 mm 6 mps 748 mmHg 47%
    23:00 -2°C° 0 mm 6 mps 748 mmHg 46%

    25 February, Monday

    Time Temperature Precipitation Wind Pressure Humidity
    00:00 -2°C° 0 mm 6 mps 748 mmHg 46%
    01:00 -2°C° 0 mm 6 mps 748 mmHg 46%
    02:00 -2°C° 0 mm 6 mps 748 mmHg 45%
    03:00 -3°C° 0 mm 6 mps 747 mmHg 44%
    04:00 -3°C° 0 mm 6 mps 747 mmHg 43%
    05:00 -3°C° 0 mm 6 mps 747 mmHg 42%
    06:00 -2°C° 0 mm 6 mps 747 mmHg 41%
    07:00 -2°C° 0 mm 6 mps 747 mmHg 40%
    08:00 -1°C° 0 mm 6 mps 747 mmHg 36%
    09:00 +2°C° 0 mm 6 mps 747 mmHg 32%
    10:00 +4°C° 0 mm 6 mps 747 mmHg 28%
    11:00 +5°C° 0 mm 6 mps 746 mmHg 29%
    12:00 +7°C° 0 mm 6 mps 746 mmHg 29%
    13:00 +8°C° 0 mm 6 mps 746 mmHg 30%
    14:00 +8°C° 0 mm 6 mps 745 mmHg 32%
    15:00 +8°C° 0 mm 6 mps 745 mmHg 34%
    16:00 +7°C° 0 mm 6 mps 745 mmHg 37%
    17:00 +5°C° 0 mm 6 mps 745 mmHg 41%
    18:00 +5°C° 0 mm 5 mps 745 mmHg 46%
    19:00 +2°C° 0 mm 5 mps 745 mmHg 50%
    20:00 +2°C° 0 mm 5 mps 745 mmHg 51%
    21:00 +3°C° 0 mm 4 mps 745 mmHg 51%
    22:00 +1°C° 0 mm 4 mps 746 mmHg 52%
    23:00 +1°C° 0 mm 4 mps 745 mmHg 52%

    26 February, Tuesday

    Time Temperature Precipitation Wind Pressure Humidity
    00:00 +1°C° 0 mm 4 mps 745 mmHg 52%
    01:00 +1°C° 0 mm 4 mps 745 mmHg 53%
    02:00 +1°C° 0 mm 4 mps 745 mmHg 51%
    03:00 +1°C° 0 mm 4 mps 745 mmHg 50%
    04:00 +1°C° 0 mm 4 mps 744 mmHg 49%
    05:00 +1°C° 0 mm 4 mps 744 mmHg 48%
    06:00 +1°C° 0 mm 4 mps 744 mmHg 48%
    07:00 +3°C° 0 mm 4 mps 745 mmHg 47%
    08:00 +5°C° 0 mm 4 mps 744 mmHg 44%
    09:00 +7°C° 0 mm 4 mps 744 mmHg 41%
    10:00 +10°C° 0 mm 4 mps 744 mmHg 38%
    11:00 +11°C° 0 mm 4 mps 744 mmHg 36%
    12:00 +12°C° 0 mm 4 mps 743 mmHg 34%
    13:00 +13°C° 0 mm 4 mps 743 mmHg 32%
    14:00 +13°C° 0 mm 3 mps 743 mmHg 34%
    15:00 +13°C° 0 mm 3 mps 742 mmHg 35%
    16:00 +13°C° 0 mm 3 mps 742 mmHg 36%
    17:00 +11°C° 0 mm 3 mps 742 mmHg 42%
    18:00 +9°C° 0 mm 3 mps 742 mmHg 47%
    19:00 +7°C° 0 mm 3 mps 742 mmHg 53%
    20:00 +7°C° 0 mm 2 mps 742 mmHg 53%
    21:00 +7°C° 0 mm 2 mps 742 mmHg 53%
    22:00 +6°C° 0 mm 2 mps 741 mmHg 54%
    23:00 +6°C° 0 mm 2 mps 741 mmHg 53%

    27 February, Wednesday

    Time Temperature Precipitation Wind Pressure Humidity
    00:00 +6°C° 0 mm 2 mps 740 mmHg 52%
    01:00 +6°C° 0 mm 2 mps 740 mmHg 52%
    02:00 +6°C° 0 mm 2 mps 739 mmHg 52%
    03:00 +6°C° 0 mm 2 mps 739 mmHg 52%
    04:00 +5°C° 0 mm 3 mps 738 mmHg 52%
    05:00 +5°C° 0 mm 3 mps 738 mmHg 55%
    06:00 +5°C° 0 mm 3 mps 738 mmHg 59%
    07:00 +4°C° 0 mm 3 mps 738 mmHg 62%
    08:00 +6°C° 0 mm 4 mps 738 mmHg 54%
    09:00 +8°C° 0 mm 5 mps 738 mmHg 47%
    10:00 +9°C° 0 mm 5 mps 738 mmHg 40%
    11:00 +10°C° 0 mm 5 mps 738 mmHg 36%
    12:00 +12°C° 0 mm 5 mps 738 mmHg 31%
    13:00 +12°C° 0 mm 4 mps 738 mmHg 27%
    14:00 +12°C° 0 mm 4 mps 738 mmHg 29%
    15:00 +11°C° 0 mm 4 mps 738 mmHg 31%
    16:00 +11°C° 0 mm 4 mps 738 mmHg 33%
    17:00 +8°C° 0 mm 4 mps 739 mmHg 39%
    18:00 +8°C° 0 mm 3 mps 739 mmHg 46%
    19:00 +5°C° 0 mm 3 mps 740 mmHg 52%
    20:00 +5°C° 0 mm 3 mps 740 mmHg 54%
    21:00 +4°C° 0 mm 3 mps 740 mmHg 57%
    22:00 +3°C° 0 mm 3 mps 740 mmHg 59%
    23:00 +3°C° 0 mm 3 mps 740 mmHg 60%
    Show more